User: anonymous   Login
Location: *
(51.5000°N, 0.1100°W)
Time: 12:59:54
(UTC+00:00)
Language:

Meteor 1-28 Rocket - Orbit

View from above orbital plane
View from above orbital plane
View from above satellite
View from above satellite

Ground track
Ground track

The orbit data is extracted from the following two-line orbital elements,

1 10114U 77057B   24202.94761862  .00012027  00000-0  43448-3 0  9994
2 10114  97.5132 347.5398 0009276 258.8250 101.1947 15.28585511576641
Epoch (UTC): 20 July 2024 22:44:34
Eccentricity: 0.0009276
inclination: 97.5132°
perigee height: 473 km
apogee height: 486 km
right ascension of ascending node: 347.5398°
argument of perigee: 258.8250°
revolutions per day: 15.28585511
mean anomaly at epoch: 101.1947°
orbit number at epoch: 57664

The dashed part of the orbit path shows where the satellite is in the earth's shadow,  

DLR